Terminal Aerodrome Forecast
Issued by NWS Amarillo, TX

Home | Current Version | Previous Version | Text Only | Print | Product List | Glossary On
Versions: 1 2 3 4 5 6 7 8 9 10 11 12 13 14 15 16 17 18 19 20 21 22 23 24 25
000
FTUS44 KAMA 170500
TAFAMA
TAF
KAMA 170520Z 1706/1806 22008KT P6SM BKN250
     FM171500 23010G17KT P6SM BKN250
     FM180000 16011KT P6SM BKN250=

USA.gov is the U.S. government's official web portal to all federal, state and local government web resources and services.